GW2457 Weather Reports


time (UTC)temp
C
wind
direction
speed
KPH
gust
KPH
rain 1hr
cm
rain 24hr
cm
rain mn
cm
humidity
%
barometer
mb
20260508064557 12 51 3.2 4.8 0.00 0.00 0.00 22 1017.9
20260508063053 11 111 3.2 4.8 0.00 0.00 0.00 26 1017.9
20260508061557 11 116 3.2 4.8 0.00 0.00 0.00 25 1017.9
20260508060053 11 102 1.6 3.2 0.00 0.00 0.00 25 1017.8
20260508054604 12 98 3.2 4.8 0.00 0.00 0.00 23 1017.7
20260508053055 12 95 3.2 4.8 0.00 0.00 0.00 22 1017.7
20260508051556 12 89 3.2 6.4 0.00 0.00 0.00 21 1017.8
20260508050057 12 97 3.2 4.8 0.00 0.00 0.00 21 1017.8
20260508044603 12 109 1.6 3.2 0.00 0.00 0.00 22 1017.8
20260508041600 14 132 0.0 1.6 0.00 0.00 0.00 19 1017.8
20260508040059 15 76 1.6 3.2 0.00 0.00 0.00 16 1017.7
20260508034558 15 75 3.2 4.8 0.00 0.00 0.00 17 1017.6
20260508033055 15 81 4.8 6.4 0.00 0.00 0.00 19 1017.3
20260508031559 15 51 3.2 6.4 0.00 0.00 0.00 20 1017.1
20260508030116 15 90 1.6 4.8 0.00 0.00 0.00 20 1017.0
20260508024602 16 76 1.6 3.2 0.00 0.00 0.00 20 1016.8
20260508023100 16 0 0.0 0.0 0.00 0.00 0.00 22 1016.5
20260508021600 17 0 0.0 0.0 0.00 0.00 0.00 19 1016.4
20260508020057 19 0 0.0 3.2 0.00 0.00 0.00 15 1016.2
20260508014558 21 212 1.6 6.4 0.00 0.00 0.00 14 1016.0
20260508013055 21 188 4.8 12.9 0.00 0.00 0.00 12 1015.8
20260508011555 22 227 3.2 8.0 0.00 0.00 0.00 12 1015.7
20260508010053 22 239 1.6 8.0 0.00 0.00 0.00 11 1015.6
20260508004555 23 244 1.6 4.8 0.00 0.00 0.00 12 1015.6
20260508003100 22 271 1.6 12.9 0.00 0.00 0.00 11 1015.6
20260508001558 23 269 3.2 9.7 0.00 0.00 0.00 11 1015.6
20260508000053 22 279 1.6 9.7 0.00 0.00 0.00 10 1015.8
20260507234555 22 347 1.6 9.7 0.00 0.00 0.00 11 1015.9
20260507233056 23 321 3.2 11.3 0.00 0.00 0.00 10 1016.0
20260507231552 22 185 4.8 12.9 0.00 0.00 0.00 11 1016.1
20260507230055 22 135 6.4 14.5 0.00 0.00 0.00 11 1016.2
20260507224611 22 225 0.0 12.9 0.00 0.03 0.00 12 1016.3
20260507223059 21 308 4.8 12.9 0.00 0.03 0.00 14 1016.4
20260507221553 21 244 3.2 11.3 0.00 0.03 0.00 12 1016.5
20260507220054 21 249 6.4 12.9 0.00 0.03 0.00 13 1016.7
20260507214603 21 209 3.2 11.3 0.00 0.03 0.00 12 1017.1
20260507213054 20 97 1.6 16.1 0.00 0.03 0.00 13 1017.6
20260507211620 21 237 6.4 11.3 0.00 0.03 0.00 15 1017.8
20260507210056 20 330 6.4 14.5 0.00 0.03 0.00 16 1018.1
20260507204601 20 289 6.4 14.5 0.00 0.03 0.00 17 1018.4
20260507203054 19 203 6.4 11.3 0.00 0.03 0.00 17 1018.6
20260507201610 19 264 3.2 14.5 0.00 0.03 0.00 17 1018.7
20260507194558 17 245 3.2 14.5 0.00 0.03 0.00 19 1019.2
20260507193055 17 309 1.6 9.7 0.00 0.03 0.00 21 1019.5
20260507191554 16 349 4.8 12.9 0.00 0.03 0.00 24 1019.7
20260507190053 17 231 4.8 12.9 0.00 0.03 0.00 23 1019.9
20260507184555 16 321 3.2 9.7 0.00 0.03 0.00 26 1020.1
20260507183055 16 263 3.2 14.5 0.00 0.03 0.00 26 1020.4
20260507181556 15 122 3.2 14.5 0.00 0.03 0.00 26 1020.6
20260507180054 15 15 6.4 22.5 0.00 0.03 0.00 25 1020.8
20260507174556 15 310 6.4 16.1 0.00 0.03 0.00 27 1021.0
20260507173101 14 299 6.4 17.7 0.00 0.03 0.00 27 1021.3
20260507171557 15 250 6.4 14.5 0.00 0.03 0.00 28 1021.4
20260507170056 14 250 8.0 12.9 0.00 0.03 0.00 29 1021.7
20260507164556 13 261 4.8 12.9 0.00 0.03 0.00 37 1021.7
20260507163057 13 317 4.8 11.3 0.00 0.03 0.00 40 1022.0
20260507161559 12 323 3.2 9.7 0.00 0.03 0.00 36 1022.2
20260507160053 12 344 4.8 8.0 0.00 0.03 0.00 35 1022.1
20260507154555 11 270 3.2 4.8 0.00 0.03 0.00 35 1022.2
20260507153100 11 253 0.0 4.8 0.00 0.03 0.00 43 1022.3
20260507151556 11 201 1.6 4.8 0.00 0.03 0.00 39 1022.4
20260507150056 10 248 0.0 4.8 0.00 0.03 0.00 41 1022.4
20260507144555 10 0 0.0 3.2 0.00 0.03 0.00 45 1022.4
20260507143055 8 224 0.0 3.2 0.00 0.03 0.00 46 1022.5
20260507141557 7 0 0.0 3.2 0.00 0.03 0.00 50 1022.4
20260507140109 7 265 0.0 4.8 0.00 0.03 0.00 46 1022.4
20260507133058 6 0 0.0 0.0 0.00 0.03 0.00 45 1022.2
20260507131559 3 93 1.6 3.2 0.00 0.03 0.00 52 1022.1
20260507130100 2 0 0.0 3.2 0.00 0.03 0.00 53 1022.0
20260507124556 2 85 0.0 3.2 0.00 0.03 0.00 53 1022.0
20260507123057 2 93 3.2 3.2 0.00 0.03 0.00 51 1021.8
20260507121556 2 0 0.0 3.2 0.00 0.03 0.00 52 1021.7
20260507120056 3 0 1.6 3.2 0.00 0.03 0.00 47 1021.6
20260507114556 2 89 1.6 4.8 0.00 0.03 0.00 49 1021.7
20260507113053 2 92 0.0 3.2 0.00 0.03 0.00 50 1021.6
20260507111554 2 0 0.0 0.0 0.00 0.03 0.00 49 1021.6
20260507110058 2 0 0.0 0.0 0.00 0.03 0.00 49 1021.6
20260507104555 3 0 0.0 0.0 0.00 0.03 0.00 46 1021.6
20260507103055 3 0 0.0 1.6 0.00 0.03 0.00 42 1021.6
20260507101606 3 50 0.0 0.0 0.00 0.03 0.00 42 1021.5
20260507100053 3 0 0.0 0.0 0.00 0.03 0.00 42 1021.5
20260507094600 3 0 0.0 0.0 0.00 0.03 0.00 43 1021.6
20260507093053 4 0 0.0 3.2 0.00 0.03 0.00 41 1021.5
20260507091603 5 87 0.0 4.8 0.00 0.03 0.00 40 1021.6
20260507090111 4 0 0.0 4.8 0.00 0.03 0.00 41 1021.7
20260507084557 5 102 1.6 3.2 0.00 0.03 0.00 40 1021.5
20260507083102 6 0 0.0 4.8 0.00 0.03 0.00 36 1021.4
20260507081558 7 82 1.6 4.8 0.00 0.03 0.00 33 1021.4
20260507080056 7 0 0.0 3.2 0.00 0.03 0.00 34 1021.4
20260507074555 7 0 0.0 6.4 0.00 0.03 0.00 31 1021.4
20260507073103 8 47 3.2 4.8 0.00 0.03 0.00 31 1021.3
20260507071559 8 360 3.2 12.9 0.00 0.03 0.00 30 1021.1
20260507070137 8 56 4.8 9.7 0.00 0.03 0.00 30 1021.1